Espace membre
Imprimable
Challenges > Delhalle - Seraing, 20/05/2007, BEL - Les 10 Miles de Seraing
Liste des rapports > Delhalle - Classement scratch
Recherche: Page: [1]
153 Entrées
 
Les réclamations ne sont plus acceptées, les résultats sont considérés comme définitifs.
RangNrNomAgeIOCLigueEquipeRéelTempsTkmMoy.ScrPtsLocalité
1.1448HANOT Serge44BELRONVAU56:2756:283:31 17.1181040LATHUY
2.1529LOMBART Frederic40BEL57:0657:083:33 16.9191026GEMBLOUX
3.180GILBERT 2 Michel 240BELUACBOUFFIOL58:0958:123:37 16.60101004MARCINELLE
4.1303AUPAIX Pierre44BELOXY200059:3359:373:43 16.2013975BRAINE-LA-COMTE
5.541FILEE Eric47BELUACDILAVILE1:00:211:00:223:45 16.0016958CHATELINEAU
6.1530DEGEIMBRE Michel45BELARCH1:00:331:00:383:46 15.9318953AWAGNE
7.1325MATHOREL Jean-Michel44BELDSDS RUNNING1:00:491:00:523:47 15.8720947BAUDOUR
8.6HUYGHE Vincent44BELMOHATPVERT1:01:181:01:203:49 15.7521937JEMAPPES
9.131LEMAIRE Philippe41BELRONVAU1:01:421:01:443:51 15.6524927LASNE
10.467LENAERS Charles D.48BEL1:01:561:02:003:52 15.5827921LIEGE
11.619LAHAYE Philippe43BELRONVAU1:02:121:02:163:53 15.5129915GREZ-DOICEAU
12.1439BERTRAND Philippe41BELCSDYANTILOB1:02:161:02:203:53 15.5030913COURT SAINT ETIENNE
13.2237DIETEREN Jean-Pierre42NLD1:02:451:02:513:55 15.3736900
14.1171HANUS Michel49BELUACDILAVILE1:02:531:02:553:55 15.3537898ROSELIES
15.217MELIN Thierry44BELRIWA1:03:041:03:103:56 15.2938894GENVAL
16.205RASSART Patrick49BELACLO1:03:071:03:153:56 15.2739892MORLANWELZ
17.1204BLACHERE Eric42BELAMAY1:04:021:04:073:59 15.0748869HUY
18.1814DECRAEMER Geert40BEL1:04:201:04:234:00 15.0050863BRUGGE
19.2328HARDENNE Andre42BELFLEU1:04:461:04:494:02 14.9051854LA HESTRE
20.1109HANOTIAU Jean-Marc45BELCEPAL1:05:201:05:274:04 14.7655842SAINT-JOSSE-TEN-NODE
21.2244BUSCEMI Gianni43BELDSRUNNING1:05:291:05:324:05 14.7459837TRIVIÈRES
22.271GERLACHE Mathieu42BELCE CDO1:05:541:06:004:06 14.6465825DAUSSOULX
23.1016HENRY Andre47BELTENDONS1:06:441:06:504:10 14.4576804LA HULPE
24.913GREEVEN Guy43BELMJ SPORT1:06:511:06:544:10 14.4478801BONCELLES
25.774FOHAL J.Luc42BELETCHIEVR1:07:011:07:154:11 14.3680797ATH
26.2281BIERNAUX Benoit46BELRCNAMUR1:07:001:07:234:12 14.3483795NAMUR
27.404TILBURGS Frank40BELAVN1:07:301:07:354:12 14.2986784MEER
28.2017DENDAL Didier44BEL1:07:301:07:384:13 14.2887784LIÈGE
29.124WARIN Didier43BEL1:07:221:07:394:13 14.2888786DILBEEK
30.2216LACROIX Xxx49BELSERAING1:07:301:07:434:13 14.2792780
31.1278LORANT Manu45BEL1:07:171:07:464:13 14.2594783MALONNE
32.193DI BIASE Renato42BELBOUFFIOL1:07:421:07:504:13 14.2495775COUILLET
33.2311DAHM Daniel48BEL1:07:591:08:134:15 14.1698768
34.1953BINKERT Marc46BELLDLV1:08:141:08:204:15 14.1499764GANSHOREN
35.2207HANOTIAUX Eric43BELRRTC1:08:151:08:264:16 14.12101762CHARLEROI
36.2383FIGEYS Manuel44BEL1:08:211:08:394:16 14.07104759
37.2009MATHOT Alain45BELFLEUWAL'COURSE1:08:221:08:444:17 14.05106757FOSSES-LA-VILLE
38.2033MESSINA Michel47BELRACLO1:08:481:08:564:17 14.01110747LA LOUVIERE
39.2289ISTACE Eric42BEL1:08:531:09:004:18 14.00111745REMICOURT
40.2263ERTZ Paul45BELSPA1:09:041:09:104:18 13.97115739LONTZEN
41.1172DIEPENDAELE Rudi44BELACLOTOTAL1:09:261:09:314:20 13.90117732LA HESTRE
42.1631CADO Paul47BELFLEUFLEU1:09:011:09:314:20 13.90118738LIGNY
43.2247GUILLICK Claude43BELACO1:09:231:09:404:20 13.87119731WAREMME
44.855KACIMI Roberto44BELSERSERUNNER1:09:391:10:114:22 13.76125723SERAING
45.1136GAUTIER Jacques45BEL1:09:581:10:114:22 13.76126717MEUX
46.297BOUCHAT Albert40BELJOGGPLUS1:09:571:10:114:22 13.76127717MEUX
47.2368BLANCHY Gilles43BEL1:10:481:10:584:25 13.61136697
48.2045BASTIN Thierry40BEL1:10:491:11:254:27 13.53142693SERAING
49.3002GRANDMONT Andre46BELARCH1:11:231:11:314:27 13.51144683DINANT
50.623PISCART Pierre47BELONHOXY20001:11:341:11:464:28 13.46148677MONS
51.43SEGHIN Vincent42BELESM1:11:451:12:004:29 13.42151672THUIN
52.2299LABEYE Jean Pierre49BELSPRIMONT1:11:451:12:254:30 13.34155670TROOZ
53.2278JOBE Eric45BEL1:12:171:12:264:30 13.34157660OCQUIER
54.2220WOJCIK Eric42BEL1:12:301:12:494:32 13.27161654
55.451MILLS Timothy45BELRCBEXXONMOB1:12:481:13:034:33 13.22163648RIXENSART
56.2040OLIVIER Philippe40BEL1:12:281:13:104:33 13.20165652HANEFFE
57.2362DUMONT Bernard42BELRTBRAIVES1:12:531:13:114:33 13.20166645
58.1229HOUSSIER Didier42BEL1:13:101:13:254:34 13.16170637VILVOORDE
59.2257ROUSSEAUX Didier43BEL1:13:361:13:514:36 13.08173629SAINT-SÉVERIN
60.2272TEMPELS Alain46BEL1:13:491:14:084:37 13.03179621VERVIERS
61.2284VAN MELLAERT Pierre43BEL1:14:001:14:104:37 13.02180618OUGRÉE
62.2313GEURTEN Robert40BEL1:14:011:14:124:37 13.02182617LIEGE JUPILLE
63.812BATISTIC Patrick43BELRONVAU1:14:061:14:154:37 13.01183614FARCIENNES
64.2014HEYNDRICKX Jan45BELKAPUCIENEN1:14:061:14:214:38 12.99186613BERTEM
65.673CAMPION Sylvain44BEL1:14:061:14:224:38 12.99187612DIEPENBEEK
66.2351LEDOUX Luc43BEL1:13:521:14:324:38 12.96188615OUGRÉE
67.1269DEPOORTER Yves42BELIBM SPORT1:14:211:14:374:39 12.95189607VILVOORDE
68.728DUBREUCQ Andre44BELUACBOUFFIOL1:14:221:14:424:39 12.93191605DAMPREMY
69.2211RENIER Dominique43BELRT BRAIVES1:14:251:14:544:40 12.90193603TOURINNE
70.1629FUNKEN Didier48BEL1:14:511:15:034:40 12.87195595MOMALLE
71.2364DECOCK Gilles40BEL1:14:531:15:104:41 12.85196594
72.512DINJART Vincent43BEL1:15:001:15:204:41 12.82200589MEUX
73.2334SCHMETZ Philippe46BELLIGNE691:14:551:15:224:41 12.82201590AYENEUX
74.735JORDANT Benoit45BELARCHJOGGPLUS1:15:371:15:594:44 12.71210574YVOIR
75.642VERMEIR Gustaaf44BEL1:15:501:16:034:44 12.70213569AARSCHOT
76.2035XXX Xxx45BEL1:15:351:16:054:44 12.70215571
77.614MASALA Vincenzo40BELACLO1:15:511:16:124:44 12.68219564HAINE SAINT PIERRE
78.1736LEFEVERE Alain48BELACA1:16:231:16:284:45 12.63226552SINT TRUIDEN
79.2396THEUNISSEN Alain42BELMPW1:15:481:16:364:46 12.61229559LIEGE
80.1958POELMANS Dominique46BELRCNAMUR1:16:231:16:474:47 12.58234546BOUGE
81.725THIRY Alain49BELWWWJOGOR1:16:151:16:534:47 12.56235548AWIRS
82.2323MOKHLES Fathi48BEL1:17:111:17:284:49 12.47244528NEUVILLE-EN-CONDROZ
83.2316MARINELLI Gaetano47BELBOUFFIOL1:17:131:17:334:50 12.46249524CHÂTELET
84.2024JOLIS Theo47BEL1:17:151:17:394:50 12.44251523VISE
85.1616SOMERS Ludo44BELHAMURABI1:16:581:17:414:50 12.44252526LINT
86.462VANNOORENBERGHE Marc40BELRRTC1:17:261:17:414:50 12.44253518CHATELET
87.1551SAUCIN Luc46BELUACRRTC1:16:591:17:424:50 12.43254525CHATELET
88.1340MALENGREAUX Patrice45BELTORTUES1:17:401:17:554:51 12.40260511BRAY
89.2243RUTH Adelin45BELRFCL1:17:461:18:204:52 12.33263507LIÈGE
90.935JACQUES Yves43BELNAC1:17:431:18:204:52 12.33264507HOUTAIN-LE-VAL
91.2037PIANCATELLI Paolo44BELKONE1:17:511:18:224:53 12.33266504BATTICE
92.2371CARABIN Philippe49BEL1:18:131:18:384:54 12.28271496
93.865SANTOCONO Jerome46BELACLO1:18:361:18:574:55 12.24277486MORLANWELZ
94.1160DEWART Henri48BELURCL1:18:521:19:124:56 12.20281480LIEGE
95.2264JOCKIN Claude41BEL1:18:471:19:154:56 12.19283480HERMALLE-SOUS-ARGENTEAU
96.561HAINAUT Charles48BEL1:19:121:19:254:56 12.16286471GERPINNES
97.547BOVY Marc47BELSPA1:19:101:19:264:57 12.16287471CRISNEE
98.2030NAISSE Eric46BELCOUREURS CELESTES1:19:001:19:324:57 12.15289472LIEGE
99.2228CLAES Richard41BEL1:19:151:19:334:57 12.14290468NANDRIN
100.154DEHON Michel48BELACLO1:19:101:19:344:57 12.14291468LA LOUVIERE
101.382SERON Benoit46BEL1:19:091:19:424:58 12.12293468MALONNE
102.2222MILITELLO Franco42BEL1:19:051:19:424:58 12.12294468BONCELLES
103.2332MASY Benoit40BELSPRIMONT1:19:151:19:554:58 12.09299462EMBOURG
104.2317LEONARD Marc43BEL1:19:321:19:574:58 12.08300458
105.2369PIERRE Marc44BEL1:19:451:20:155:00 12.04304452EMINES
106.1590POPPE Christian48BEL1:19:481:20:225:00 12.02305451MARCHE-EN-FAMENNE
107.2293AMAND Francois45BELRFCL1:19:491:20:295:00 12.00307449SPRIMONT
108.2258MENNICKEN Roger47BEL1:20:221:20:485:02 11.96310439EYNATTEN
109.2002LUTGEN Jean-Marc47BEL1:20:241:20:535:02 11.94311438BASTOGNE
110.2261BASTIEN Karl Heinz47BEL1:20:241:20:575:02 11.93312438HERBESTHAL
111.2329LOISEAU Jean-Luc47BEL1:20:481:21:005:02 11.93313431
112.777KINET Serge49BELJOGGPLUS1:20:391:21:115:03 11.90317430FLEMALLE-HAUTE
113.2212DE WASSEIGE Jean42BEL1:20:571:21:185:03 11.88319425BRUXELLES
114.2039HEYLEN Vincent44BEL1:21:111:21:585:06 11.79329415LONGPRE
115.2363REPPEN Nicolas42BELCAVE CANEM1:22:081:22:385:08 11.69338396HACCOURT
116.2265MERLOT Joseph41BEL1:22:181:22:485:09 11.67340392SERAING
117.1473RUELLE Eric47BELJET1:22:061:22:535:09 11.65342394CHASTRE
118.1907BYA Dany45BELSERSERUNNER1:22:411:23:025:10 11.63344384SERAING
119.970BRERO Dimitri49BEL1:22:321:23:045:10 11.63345386QUAREGNON
120.674THONON Jean Marc40BELRT BR1:22:181:23:045:10 11.63346389CIPLET
121.1420DE SLAGMEULDER Michel42BELOEH1:22:361:23:115:10 11.61349382HALLE
122.2036DESIRON Quentin43BEL1:22:571:23:315:12 11.57352376ESNEUX
123.192GEUSKENS J.Marc43BEL1:23:201:23:585:13 11.50361364BRUXELLES
124.1911VANDE CASTEELE Christian43BELNAC1:23:251:24:015:14 11.50362363HOUTAIN-LE-VAL
125.1938DIRICQ Dominique48BELNAC1:23:561:24:335:16 11.43367352OBAIX
126.2236DEFLOOR Philippe44BELBVAC1:24:021:24:425:16 11.40368350BERCHEM (ANTWERPEN)
127.608ROSSI Stephane41BELROSCO TEAM1:24:181:24:535:17 11.38371345ROBERTVILLE
128.3001D'ACRI Claudio41BEL1:24:251:24:545:17 11.38372343MONTEGNÉE
129.2004REINARTZ Wilfried48BELLACE1:24:521:25:105:18 11.34377333EUPEN
130.918DINJART Dominique45BEL1:25:391:26:005:21 11.23386317LA BRUYERE
131.2395THISSEN Philippe45BELJCR1:25:571:26:435:24 11.14394308THEUX
132.2271HEINEN Michel45BEL1:26:181:27:045:25 11.09398301THIMISTER-CLERMONT
133.2025MALORGIO Attilio48BELSABCA1:26:401:27:075:25 11.09400294JUMET
134.2388BOVY Philippe40BEL1:26:371:27:115:25 11.08401294GRÂCE-HOLLOGNE
135.2259DELHAYE Patrick49BEL1:27:031:27:395:27 11.02411282LIEGE
136.2043BERNARD Eric46BEL1:26:531:27:445:27 11.01413283LIEGE
137.750AUDRIT Philippe46BEL1:27:551:28:225:30 10.93418266BONCELLES
138.1912COLSON Pascal45BELACLO1:27:591:28:265:30 10.92420264MANAGE
139.208BOUTEFEU Jacques47BELESMRRTC1:28:561:29:445:35 10.77429246MONTIGNIES-SUR-SAMBRE
140.2031BREULHEID Rene49BELVICO1:29:451:30:325:38 10.67433233BAS-OHA
141.584UBIETA Didier46BELFOUL PLAIS1:34:381:35:195:56 10.13465152VINALMONT
142.2016DEFAWE Yves43BELSERUNNER1:34:561:35:395:57 10.10469145FLEMALLE
143.206MERCENIER 48BEL1:35:011:35:495:58 10.08470143
144.2377BOMANS Stefaan49BEL1:35:391:36:306:00 10.01472134LIEGE
145.2218DEFRERE Eddy41BEL1:36:021:36:416:01 9.99474129
146.1831LOMBET Benoit49BELARCH1:37:071:37:576:06 9.86481111MIECRET
147.2298HUMBLET Joel46BEL1:38:081:38:286:07 9.8148497POULSEUR
148.128VARLET Stephan49BELJCR1:40:311:41:196:18 9.5349364VERVIERS
149.2252LERUSE Martine43BELSERSERUNNER1:42:141:43:036:25 9.3749543SERAING
150.2202ENGELEN Yves46BEL1:43:211:43:406:27 9.3249729NANDRIN
151.2270VERKOYEN Thierry45BEL1:43:101:43:576:28 9.2950030AMAY
152.2028LINTEN Dirk45BELHAMURABI1:44:081:44:516:31 9.2150218MEERHOUT
DNF1960SPLINGARD Jean Claude49BELACLOHAINE-SAINT-PAUL
DNF: abandon; DSQ: disqualifié; Vitesse en km/h
Page: [1]